Regional Weather Roundup
Issued by NWS Green Bay, WI

Home | Current Version | Previous Version | Graphics & Text | Print | Product List | Glossary Off
Versions: 1 2 3 4 5 6 7 8 9 10 11 12 13 14 15 16 17 18 19 20 21 22 23 24 25 26 27 28 29 30 31 32 33 34 35 36 37 38 39 40 41 42 43 44 45 46 47 48 49 50

000
ASUS43 KGRB 010910
RWRGRB

NORTH-CENTRAL AND NORTHEAST WISCONSIN REGIONAL WEATHER ROUNDUP
NATIONAL WEATHER SERVICE GREEN BAY WI
400 AM CDT WED OCT 01 2014

WIZ005-009-010>012-018-019-011000-
NORTH CENTRAL WISCONSIN

CITY           SKY/WX    TMP DP  RH WIND       PRES   REMARKS
IRONWOOD       NOT AVBL
MANITOWISH WTR CLOUDY    44  44 100 S13       29.98R
ARBOR VITAE    CLOUDY    44  42  93 S9        29.99R
EAGLE RIVER    CLOUDY    43  43 100 S7        29.99R FOG
LAND O LAKES   CLOUDY    44  44  97 S7        29.99R FOG
RHINELANDER    CLOUDY    43  42  97 S6        30.01S FOG
PHILLIPS       CLOUDY    43  42  93 S10       29.97F
ANTIGO         CLOUDY    43  43 100 SE6       30.01S FOG
TOMAHAWK       CLOUDY    43  41  94 S3        30.01R FOG
MERRILL        CLOUDY    44  44 100 S7        30.01R FOG
$$

WIZ013-073-011000-
NORTHEAST WISCONSIN

CITY           SKY/WX    TMP DP  RH WIND       PRES   REMARKS
IRON MOUNTAIN  FOG       47  46  97 S5        30.00S VSB 1
MARINETTE      NOT AVBL
OCONTO         CLOUDY    50  50 100 SE5       30.03R
$$

WIZ017-030-035>037-045-011000-
CENTRAL WISCONSIN

CITY           SKY/WX    TMP DP  RH WIND       PRES   REMARKS
MEDFORD        CLOUDY    44  43  97 SE7       29.98F FOG
WAUSAU         CLOUDY    45  43  93 SE8       30.01R FOG
MOSINEE        CLOUDY    45  45 100 S8        30.02R
MARSHFIELD     CLOUDY    46  43  89 SE10      30.00S
WISC RAPIDS    CLOUDY    46  45  96 SE3       30.01S FOG
STEVENS POINT  DRIZZLE   44  43  97 CALM      30.01S
WAUPACA        CLOUDY    49  48  95 CALM      30.02S FOG
SHAWANO        CLOUDY    48  46  93 CALM      30.03F FOG
CLINTONVILLE   CLOUDY    45  45 100 CALM      30.03S FOG
$$

WIZ038-039-048-051-011000-
FOX VALLEY

CITY           SKY/WX    TMP DP  RH WIND       PRES   REMARKS
NWS GREEN BAY  CLOUDY    49  48  97 CALM      30.03S FOG
APPLETON       CLOUDY    46  46 100 CALM      30.02F FOG
OSHKOSH        CLOUDY    50  49  96 E5        30.01S FOG
FOND DU LAC    CLOUDY    49  47  93 CALM      30.02S
$$

WIZ022-050-052-011000-
EAST CENTRAL WISCONSIN

CITY           SKY/WX    TMP DP  RH WIND       PRES   REMARKS
STURGEON BAY   NOT AVBL
MANITOWOC      NOT AVBL
SHEBOYGAN      NOT AVBL
$$

LMZ563-521-522-541>543-011000-
LAKESHORE

STATION/POSITION TIME  TEMP    WIND        PRES    VSBY  WAVE
                       AIR SEA DIR/SP/G                  HT/PER
                 (UTC) (F)     (DEG/KT/KT) (MB)    (MI)  (FT/S)
SHEBOYGAN LKSHOR 0900   55 54  140/ 13/ 15 1016.7R
KEWAUNEE LKSHORE 0900   52     150/  8/  9 1015.7S
NORTHPORT PIER   0900   54     130/  7/ 12 1016.9F
N MID LAKE BUOY  0900   54 58  190/ 10/ 12 1017.5F         1/ 3
S GREEN BAY BUOY 0900   53     VRB 10/ 12  1017.5S
CHAMBERS ISLAND  0900   52     120/  3/  6 1016.6F
MENOMINEE LKSHOR 0900   53     150/ 11/ 13 1016.8F
$$


USA.gov is the U.S. government's official web portal to all federal, state and local government web resources and services.